Tracking 27420 objects as of 10-Jun-2023
HD Live streaming from Space Station
objects crossing your sky now

ORBCOMM FM 16 DEB

Track ORBCOMM FM 16 DEB now!
10-day predictions


NORAD ID: 44023
Int'l Code: 1998-046S
Perigee: 786.0 km
Apogee: 799.3 km
Inclination: 45.0 °
Period: 100.6 minutes
Semi major axis: 7163 km
RCS: Unknown
Launch date: August 2, 1998
Source: ORBCOMM (ORB)
Launch site: Pegasus launched from Eastern Range Air Space (ERAS)

Note: This is SATELLITE DEBRIS
Your satellite tracking list
Your tracking list is empty




NASA's NSSDC Master Catalog

Two Line Element Set (TLE):
1 44023U 98046S   23160.88956338  .00000772  00000-0  33777-3 0  9998
2 44023  45.0053  97.1209 0009273 356.5855   3.4926 14.31862784231158
Source of the keplerian elements: AFSPC